START_TIME,STEP,MOV.,H8,t_acc.,H43,t_acc.,M25,t_acc.,H9,t_acc.
1979-07-29 00:00:28.650 ,0,0,0.,12.0,0.,12.0,0.,12.0,0.,12.0
1979-07-29 00:00:40.650 ,0,0,0.,12.0,0.,12.0,0.,12.0,0.,12.0
1979-07-29 00:00:52.650 ,1,0,0.,12.0,0.,12.0,0.,12.0,0.,12.0
1979-07-29 00:01:04.650 ,1,0,0.,12.0,0.,12.0,0.,12.0,0.,12.0
1979-07-29 00:01:16.650 ,1,0,0.,12.0,0.,12.0,0.,12.0,0.,12.0
1979-07-29 00:01:28.650 ,1,0,0.,12.0,0.,12.0,0.,12.0,0.,12.0
1979-07-29 00:01:40.650 ,2,0,0.,12.0,0.,12.0,0.,12.0,0.,12.0
1979-07-29 00:01:52.650 ,2,0,0.,12.0,0.,12.0,0.,12.0,0.,12.0
1979-07-29 00:02:04.650 ,2,0,0.,12.0,0.,12.0,0.,12.0,0.,12.0
1979-07-29 00:02:16.650 ,2,0,0.,12.0,0.,12.0,0.,12.0,0.,12.0
1979-07-29 00:02:28.650 ,3,0,0.,12.0,0.,12.0,0.,12.0,0.,12.0
1979-07-29 00:02:40.650 ,3,0,0.,12.0,0.,12.0,0.,12.0,0.,12.0
1979-07-29 00:02:52.650 ,3,0,0.,12.0,0.,12.0,0.,12.0,0.,12.0
1979-07-29 00:03:04.650 ,3,0,0.,12.0,0.,12.0,0.,12.0,0.,12.0
1979-07-29 00:03:16.650 ,4,0,0.,12.0,0.,12.0,0.,12.0,0.,12.0
1979-07-29 00:03:28.650 ,4,0,0.,12.0,0.,12.0,0.,12.0,0.,12.0
1979-07-29 00:03:40.650 ,4,0,0.,12.0,0.,12.0,0.,12.0,0.,12.0
1979-07-29 00:03:52.650 ,4,0,0.,12.0,0.,12.0,0.,12.0,0.,12.0
1979-07-29 00:04:04.650 ,5,0,0.,12.0,0.,12.0,0.,12.0,0.,12.0
1979-07-29 00:04:16.650 ,5,0,0.,12.0,0.,12.0,0.,12.0,0.,12.0
1979-07-29 00:04:28.650 ,5,0,0.,12.0,0.,12.0,0.,12.0,0.,12.0
1979-07-29 00:04:40.650 ,5,0,0.,12.0,0.,12.0,0.,12.0,0.,12.0
1979-07-29 00:04:52.650 ,6,0,0.,12.0,0.,12.0,0.,12.0,0.,12.0
1979-07-29 00:05:04.650 ,6,0,0.,12.0,0.,12.0,0.,12.0,0.,12.0
1979-07-29 00:05:16.650 ,6,0,0.,12.0,0.,12.0,1.,12.0,0.,12.0
1979-07-29 00:05:28.650 ,6,0,0.,12.0,0.,12.0,0.,12.0,0.,12.0
1979-07-29 00:05:40.650 ,7,0,0.,12.0,0.,12.0,0.,12.0,0.,12.0
1979-07-29 00:05:52.650 ,7,0,0.,12.0,0.,12.0,0.,12.0,0.,12.0
1979-07-29 00:06:04.650 ,7,0,0.,12.0,0.,12.0,0.,12.0,0.,12.0
1979-07-29 00:06:16.650 ,7,0,0.,12.0,0.,12.0,0.,12.0,0.,12.0
1979-07-29 00:06:28.650 ,7,0,0.,12.0,0.,12.0,0.,12.0,0.,12.0
1979-07-29 00:06:40.650 ,7,0,0.,12.0,0.,12.0,0.,12.0,0.,12.0
1979-07-29 00:06:52.650 ,7,0,0.,12.0,0.,12.0,0.,12.0,0.,12.0
1979-07-29 00:07:04.650 ,7,0,0.,12.0,0.,12.0,0.,12.0,0.,12.0
1979-07-29 00:07:16.650 ,6,0,0.,12.0,0.,12.0,0.,12.0,0.,12.0
1979-07-29 00:07:28.650 ,6,0,0.,12.0,0.,12.0,0.,12.0,0.,12.0
1979-07-29 00:07:40.650 ,6,0,0.,12.0,0.,12.0,0.,12.0,0.,12.0
1979-07-29 00:07:52.650 ,6,0,0.,12.0,0.,12.0,0.,12.0,0.,12.0
1979-07-29 00:08:04.650 ,5,0,0.,12.0,0.,12.0,0.,12.0,0.,12.0
1979-07-29 00:08:16.650 ,5,0,0.,12.0,0.,12.0,0.,12.0,0.,12.0
1979-07-29 00:08:28.650 ,5,0,0.,12.0,0.,12.0,0.,12.0,0.,12.0
1979-07-29 00:08:40.650 ,5,0,0.,12.0,0.,12.0,0.,12.0,0.,12.0
1979-07-29 00:08:52.650 ,4,0,0.,12.0,0.,12.0,0.,12.0,0.,12.0
1979-07-29 00:09:04.650 ,4,0,0.,12.0,0.,12.0,0.,12.0,0.,12.0
1979-07-29 00:09:16.650 ,4,0,0.,12.0,0.,12.0,0.,12.0,0.,12.0
1979-07-29 00:09:28.650 ,4,0,0.,12.0,0.,12.0,0.,12.0,0.,12.0
1979-07-29 00:09:40.650 ,3,0,0.,12.0,0.,12.0,0.,12.0,0.,12.0
1979-07-29 00:09:52.650 ,3,0,0.,12.0,0.,12.0,0.,12.0,0.,12.0
1979-07-29 00:10:04.650 ,3,0,0.,12.0,0.,12.0,0.,12.0,0.,12.0
1979-07-29 00:10:16.650 ,3,0,0.,12.0,0.,12.0,0.,12.0,0.,12.0
1979-07-29 00:10:28.650 ,2,0,0.,12.0,0.,12.0,0.,12.0,0.,12.0
1979-07-29 00:10:40.650 ,2,0,0.,12.0,0.,12.0,0.,12.0,0.,12.0
1979-07-29 00:10:52.650 ,2,0,0.,12.0,0.,12.0,0.,12.0,0.,12.0
1979-07-29 00:11:04.650 ,2,0,0.,12.0,0.,12.0,0.,12.0,0.,12.0
1979-07-29 00:11:16.650 ,1,0,0.,12.0,0.,12.0,0.,12.0,0.,12.0
1979-07-29 00:11:28.650 ,1,0,0.,12.0,0.,12.0,0.,12.0,0.,12.0
1979-07-29 00:11:40.650 ,1,0,0.,12.0,0.,12.0,0.,12.0,0.,12.0
1979-07-29 00:11:52.650 ,1,0,0.,12.0,0.,12.0,0.,12.0,0.,12.0
1979-07-29 00:12:04.650 ,0,0,0.,12.0,0.,12.0,0.,12.0,0.,12.0
1979-07-29 00:12:16.650 ,0,0,0.,12.0,0.,12.0,0.,12.0,0.,12.0
1979-07-29 00:12:28.650 ,0,0,0.,12.0,0.,12.0,0.,12.0,0.,12.0
1979-07-29 00:12:40.650 ,0,0,0.,12.0,0.,12.0,0.,12.0,0.,12.0
1979-07-29 00:12:52.650 ,0,0,0.,12.0,0.,12.0,0.,12.0,0.,12.0
1979-07-29 00:13:04.650 ,0,0,0.,12.0,0.,12.0,0.,12.0,0.,12.0
1979-07-29 00:13:16.650 ,0,0,0.,12.0,0.,12.0,0.,12.0,0.,12.0
1979-07-29 00:13:28.650 ,0,0,0.,12.0,0.,12.0,0.,12.0,0.,12.0
1979-07-29 00:13:40.650 ,0,0,,0,,0,,0,,0
1979-07-29 00:13:52.650 ,0,0,,0,,0,,0,,0
1979-07-29 00:14:04.650 ,0,0,,0,,0,,0,,0
1979-07-29 00:14:16.650 ,0,0,,0,,0,,0,,0
1979-07-29 00:20:19.650 ,0,0,,0,,0,,0,,0
1979-07-29 00:20:31.650 ,0,0,0.,12.0,0.,12.0,0.,12.0,0.,12.0
1979-07-29 00:20:28.650 ,7,1,0.,12.0,0.,12.0,0.,12.0,0.,12.0
1979-07-29 00:20:40.650 ,7,1,0.,12.0,0.,12.0,0.,12.0,0.,12.0
1979-07-29 00:20:52.650 ,3,1,0.,12.0,0.,12.0,0.,12.0,0.,12.0
1979-07-29 00:21:04.650 ,3,1,0.,12.0,0.,12.0,0.,12.0,0.,12.0
1979-07-29 00:21:16.650 ,0,1,0.,12.0,0.,12.0,0.,12.0,0.,12.0
1979-07-29 00:21:28.650 ,0,1,0.,12.0,0.,12.0,0.,12.0,0.,12.0
1979-07-29 00:21:40.650 ,0,0,,0,,0,,0,,0
1979-07-29 00:21:52.650 ,0,0,,0,,0,,0,,0
1979-07-29 00:22:04.650 ,0,0,,0,,0,,0,,0
1979-07-29 00:22:16.650 ,0,0,,0,,0,,0,,0
1979-07-29 00:23:23.250 ,0,0,0.,12.0,0.,12.0,0.,12.0,0.,12.0
1979-07-29 00:23:35.250 ,0,0,0.,12.0,0.,12.0,0.,12.0,0.,12.0
1979-07-29 00:23:40.650 ,7,1,0.,12.0,0.,12.0,0.,12.0,0.,12.0
1979-07-29 00:23:52.650 ,7,1,0.,12.0,0.,12.0,0.,12.0,0.,12.0
1979-07-29 00:24:04.650 ,3,1,0.,12.0,0.,12.0,0.,12.0,0.,12.0
1979-07-29 00:24:16.650 ,3,1,0.,12.0,0.,12.0,0.,12.0,0.,12.0
1979-07-29 00:24:28.650 ,0,1,0.,12.0,0.,12.0,0.,12.0,0.,12.0
1979-07-29 00:24:40.650 ,0,1,0.,12.0,0.,12.0,0.,12.0,0.,12.0
1979-07-29 00:24:52.650 ,4,1,0.,12.0,0.,12.0,0.,12.0,0.,12.0
1979-07-29 00:25:04.650 ,4,1,0.,12.0,0.,12.0,0.,12.0,0.,12.0
1979-07-29 00:25:16.650 ,7,1,0.,12.0,0.,12.0,0.,12.0,0.,12.0
1979-07-29 00:25:28.650 ,7,1,0.,12.0,0.,12.0,0.,12.0,0.,12.0
1979-07-29 00:25:40.650 ,3,1,0.,12.0,0.,12.0,0.,12.0,0.,12.0
1979-07-29 00:25:52.650 ,3,1,0.,12.0,0.,12.0,0.,12.0,0.,12.0
1979-07-29 00:26:04.650 ,0,1,0.,12.0,0.,12.0,0.,12.0,0.,12.0
1979-07-29 00:26:16.650 ,0,1,0.,12.0,0.,12.0,0.,12.0,0.,12.0
1979-07-29 00:26:28.650 ,4,1,0.,12.0,0.,12.0,0.,12.0,0.,12.0
1979-07-29 00:26:40.650 ,4,1,0.,12.0,0.,12.0,0.,12.0,0.,12.0
1979-07-29 00:26:52.650 ,7,1,0.,12.0,0.,12.0,0.,12.0,0.,12.0
1979-07-29 00:27:04.650 ,7,1,0.,12.0,0.,12.0,0.,12.0,0.,12.0
1979-07-29 00:27:16.650 ,3,1,0.,12.0,0.,12.0,0.,12.0,0.,12.0
1979-07-29 00:27:28.650 ,3,1,0.,12.0,0.,12.0,0.,12.0,0.,12.0
1979-07-29 00:27:40.650 ,0,1,0.,12.0,0.,12.0,0.,12.0,0.,12.0
1979-07-29 00:27:52.650 ,0,1,0.,12.0,0.,12.0,0.,12.0,0.,12.0
1979-07-29 00:28:04.650 ,4,1,0.,12.0,0.,12.0,0.,12.0,0.,12.0
1979-07-29 00:28:16.650 ,4,1,0.,12.0,0.,12.0,0.,12.0,0.,12.0
1979-07-29 00:28:28.650 ,7,1,0.,12.0,0.,12.0,0.,12.0,0.,12.0
1979-07-29 00:28:40.650 ,7,1,0.,12.0,0.,12.0,0.,12.0,0.,12.0
1979-07-29 00:28:52.650 ,0,0,0.,12.0,0.,12.0,0.,12.0,0.,12.0
1979-07-29 00:29:04.650 ,0,0,,0,,0,,0,,0
1979-07-29 00:29:16.650 ,0,0,,0,,0,,0,,0
1979-07-29 00:29:28.650 ,0,0,,0,,0,,0,,0
1979-07-29 00:30:34.650 ,0,0,0.,12.0,0.,12.0,0.,12.0,0.,12.0
1979-07-29 00:30:46.650 ,0,0,0.,12.0,0.,12.0,0.,12.0,0.,12.0
1979-07-29 00:30:52.650 ,0,0,0.,12.0,0.,12.0,0.,12.0,0.,12.0
1979-07-29 00:31:04.650 ,0,0,0.,12.0,0.,12.0,0.,12.0,0.,12.0
1979-07-29 00:31:16.650 ,4,0,0.,12.0,0.,12.0,0.,12.0,0.,12.0
1979-07-29 00:31:28.650 ,4,0,0.,12.0,0.,12.0,0.,12.0,0.,12.0
1979-07-29 00:31:40.650 ,4,0,0.,12.0,0.,12.0,0.,12.0,0.,12.0
1979-07-29 00:31:52.650 ,4,0,0.,12.0,0.,12.0,0.,12.0,0.,12.0
1979-07-29 00:32:04.650 ,3,0,0.,12.0,0.,12.0,0.,12.0,0.,12.0
1979-07-29 00:32:16.650 ,3,0,0.,12.0,0.,12.0,0.,12.0,0.,12.0
1979-07-29 00:32:28.650 ,0,0,0.,12.0,0.,12.0,0.,12.0,0.,12.0
1979-07-29 00:32:40.650 ,0,0,,0,,0,,0,,0
1979-07-29 00:32:52.650 ,2,0,0.,12.0,0.,12.0,0.,12.0,0.,12.0
1979-07-29 00:33:04.650 ,2,0,0.,12.0,0.,12.0,0.,12.0,0.,12.0
1979-07-29 00:33:16.650 ,0,0,0.,12.0,0.,12.0,0.,12.0,0.,12.0
1979-07-29 00:33:28.650 ,0,0,0.,12.0,0.,12.0,0.,12.0,0.,12.0
1979-07-29 00:33:40.650 ,0,0,0.,12.0,0.,12.0,0.,12.0,0.,12.0
1979-07-29 00:33:52.650 ,0,0,,0,,0,,0,,0
1979-07-29 00:34:04.650 ,0,0,,0,,0,,0,,0
1979-07-29 00:34:16.650 ,0,0,0.,12.0,0.,12.0,0.,12.0,0.,12.0
1979-07-29 00:34:28.650 ,0,1,0.,12.0,0.,12.0,0.,12.0,0.,12.0
1979-07-29 00:34:40.650 ,0,1,,0,,0,,0,,0
1979-07-29 00:34:52.650 ,0,1,0.,12.0,0.,12.0,0.,12.0,0.,12.0
1979-07-29 00:35:04.650 ,0,1,,0,,0,,0,,0
1979-07-29 00:35:16.650 ,0,0,0.,12.0,0.,12.0,0.,12.0,0.,12.0
1979-07-29 00:35:28.650 ,0,0,0.,12.0,0.,12.0,0.,12.0,0.,12.0
1979-07-29 00:35:40.650 ,0,0,0.,12.0,0.,12.0,0.,12.0,0.,12.0
1979-07-29 00:35:52.650 ,0,0,0.,12.0,0.,12.0,0.,12.0,0.,12.0
1979-07-29 00:36:04.650 ,0,0,0.,12.0,0.,12.0,0.,12.0,0.,12.0
1979-07-29 00:36:16.650 ,0,0,0.,12.0,0.,12.0,0.,12.0,0.,12.0
1979-07-29 00:36:28.650 ,0,0,0.,12.0,0.,12.0,0.,12.0,0.,12.0
1979-07-29 00:36:40.650 ,0,0,0.,12.0,0.,12.0,0.,12.0,0.,12.0
1979-07-29 00:36:52.650 ,2,1,0.,12.0,0.,12.0,0.,12.0,0.,12.0
1979-07-29 00:37:04.650 ,2,1,,0,,0,,0,,0
1979-07-29 00:37:16.650 ,2,0,,0,,0,,0,,0
1979-07-29 00:37:28.650 ,2,0,0.,12.0,0.,12.0,0.,12.0,0.,12.0
1979-07-29 00:37:40.650 ,0,0,0.,12.0,0.,12.0,0.,12.0,0.,12.0
1979-07-29 00:37:52.650 ,0,0,0.,12.0,0.,12.0,0.,12.0,0.,12.0
1979-07-29 00:38:04.650 ,0,0,0.,12.0,0.,12.0,0.,12.0,0.,12.0
1979-07-29 00:38:16.650 ,0,0,0.,12.0,0.,12.0,0.,12.0,0.,12.0
1979-07-29 00:38:28.650 ,0,0,0.,12.0,0.,12.0,0.,12.0,0.,12.0
1979-07-29 00:38:40.650 ,0,0,0.,12.0,0.,12.0,0.,12.0,0.,12.0
1979-07-29 00:38:52.650 ,0,0,0.,12.0,0.,12.0,0.,12.0,0.,12.0
1979-07-29 00:39:04.650 ,0,0,0.,12.0,0.,12.0,0.,12.0,0.,12.0
1979-07-29 00:39:16.650 ,0,0,0.,12.0,0.,12.0,0.,12.0,0.,12.0
1979-07-29 00:39:28.650 ,0,0,0.,12.0,0.,12.0,0.,12.0,0.,12.0
1979-07-29 00:39:40.650 ,0,0,,0,,0,,0,,0
1979-07-29 00:39:52.650 ,0,0,,0,,0,,0,,0
1979-07-29 00:40:59.850 ,0,0,,0,,0,,0,,0
1979-07-29 00:41:11.850 ,0,0,0.,12.0,0.,12.0,0.,12.0,0.,12.0
1979-07-29 00:41:16.650 ,0,0,0.,12.0,0.,12.0,0.,12.0,0.,12.0
1979-07-29 00:41:28.650 ,0,0,0.,12.0,0.,12.0,0.,12.0,0.,12.0
1979-07-29 00:41:40.650 ,7,1,0.,12.0,0.,12.0,0.,12.0,0.,12.0
1979-07-29 00:41:52.650 ,7,1,,0,,0,,0,,0
1979-07-29 00:42:04.650 ,7,0,0.,12.0,0.,12.0,0.,12.0,0.,12.0
1979-07-29 00:42:16.650 ,7,0,0.,12.0,0.,12.0,0.,12.0,0.,12.0
1979-07-29 00:42:28.650 ,6,0,0.,12.0,0.,12.0,0.,12.0,0.,12.0
1979-07-29 00:42:40.650 ,6,0,0.,12.0,0.,12.0,0.,12.0,0.,12.0
1979-07-29 00:42:52.650 ,6,0,0.,12.0,0.,12.0,0.,12.0,0.,12.0
1979-07-29 00:43:04.650 ,6,0,0.,12.0,0.,12.0,0.,12.0,0.,12.0
1979-07-29 00:43:16.650 ,5,0,,0,,0,,0,,0
1979-07-29 00:43:28.650 ,5,0,0.,12.0,0.,12.0,0.,12.0,0.,12.0
1979-07-29 00:43:40.650 ,5,0,,0,,0,,0,,0
1979-07-29 00:43:52.650 ,5,0,0.,12.0,0.,12.0,0.,12.0,0.,12.0
1979-07-29 00:44:04.650 ,4,0,0.,12.0,0.,12.0,0.,12.0,0.,12.0
1979-07-29 00:44:16.650 ,4,0,0.,12.0,0.,12.0,0.,12.0,0.,12.0
1979-07-29 00:44:28.650 ,4,0,0.,12.0,0.,12.0,0.,12.0,0.,12.0
1979-07-29 00:44:40.650 ,4,0,0.,12.0,0.,12.0,0.,12.0,0.,12.0
1979-07-29 00:44:52.650 ,3,1,0.,12.0,0.,12.0,0.,12.0,0.,12.0
1979-07-29 00:45:04.650 ,3,1,,0,,0,,0,,0
1979-07-29 00:45:16.650 ,3,0,0.,12.0,0.,12.0,0.,12.0,0.,12.0
1979-07-29 00:45:28.650 ,3,0,0.,12.0,0.,12.0,0.,12.0,0.,12.0
1979-07-29 00:45:40.650 ,0,0,0.,12.0,0.,12.0,0.,12.0,0.,12.0
1979-07-29 00:45:52.650 ,0,0,0.,12.0,0.,12.0,0.,12.0,0.,12.0
1979-07-29 00:46:04.650 ,0,0,0.,12.0,0.,12.0,0.,12.0,0.,12.0
1979-07-29 00:46:16.650 ,0,0,0.,12.0,0.,12.0,0.,12.0,0.,12.0
1979-07-29 00:46:28.650 ,0,0,0.,12.0,0.,12.0,0.,12.0,0.,12.0
1979-07-29 00:46:40.650 ,0,0,0.,12.0,0.,12.0,0.,12.0,0.,12.0
1979-07-29 00:46:52.650 ,0,0,0.,12.0,0.,12.0,0.,12.0,0.,12.0
1979-07-29 00:47:04.650 ,0,0,0.,12.0,0.,12.0,0.,12.0,0.,12.0
1979-07-29 00:47:16.650 ,0,0,0.,12.0,0.,12.0,0.,12.0,0.,12.0
1979-07-29 00:47:28.650 ,0,0,0.,12.0,0.,12.0,0.,12.0,0.,12.0
1979-07-29 00:47:40.650 ,0,1,0.,12.0,0.,12.0,0.,12.0,0.,12.0
1979-07-29 00:47:52.650 ,0,1,,0,,0,,0,,0
1979-07-29 00:48:04.650 ,0,0,0.,12.0,0.,12.0,0.,12.0,0.,12.0
1979-07-29 00:48:16.650 ,0,0,,0,,0,,0,,0
1979-07-29 00:48:28.650 ,0,0,,0,,0,,0,,0
1979-07-29 00:48:40.650 ,0,0,,0,,0,,0,,0
1979-07-29 00:50:08.250 ,0,0,0.,12.0,0.,12.0,0.,12.0,0.,12.0
1979-07-29 00:50:20.250 ,0,0,0.,12.0,0.,12.0,0.,12.0,0.,12.0
1979-07-29 00:50:28.650 ,3,0,0.,12.0,0.,12.0,0.,12.0,0.,12.0
1979-07-29 00:50:40.650 ,3,0,0.,12.0,0.,12.0,0.,12.0,0.,12.0
1979-07-29 00:50:52.650 ,0,0,,0,,0,,0,,0
1979-07-29 00:51:04.650 ,0,0,,0,,0,,0,,0
1979-07-29 00:51:33.450 ,0,0,,0,,0,,0,,0
1979-07-29 00:51:45.450 ,0,0,0.,12.0,0.,12.0,0.,12.0,0.,12.0
1979-07-29 00:51:40.650 ,0,0,0.,12.0,0.,12.0,0.,12.0,0.,12.0
1979-07-29 00:51:52.650 ,0,0,0.,12.0,0.,12.0,0.,12.0,0.,12.0
1979-07-29 00:52:04.650 ,5,0,0.,12.0,0.,12.0,0.,12.0,0.,12.0
1979-07-29 00:52:16.650 ,5,0,0.,12.0,0.,12.0,0.,12.0,0.,12.0
1979-07-29 00:52:28.650 ,5,0,0.,12.0,0.,12.0,0.,12.0,0.,12.0
1979-07-29 00:52:40.650 ,5,0,0.,12.0,0.,12.0,0.,12.0,0.,12.0
1979-07-29 00:52:52.650 ,6,0,0.,12.0,0.,12.0,0.,12.0,0.,12.0
1979-07-29 00:53:04.650 ,6,0,0.,12.0,0.,12.0,0.,12.0,0.,12.0
1979-07-29 00:53:16.650 ,6,0,0.,12.0,0.,12.0,0.,12.0,0.,12.0
1979-07-29 00:53:28.650 ,6,0,0.,12.0,0.,12.0,0.,12.0,0.,12.0
1979-07-29 00:53:40.650 ,7,0,0.,12.0,0.,12.0,0.,12.0,0.,12.0
1979-07-29 00:53:52.650 ,7,0,0.,12.0,0.,12.0,0.,12.0,0.,12.0
1979-07-29 00:54:04.650 ,7,0,0.,12.0,0.,12.0,0.,12.0,0.,12.0
1979-07-29 00:54:16.650 ,7,0,0.,12.0,0.,12.0,0.,12.0,0.,12.0
1979-07-29 00:54:28.650 ,7,0,0.,12.0,0.,12.0,0.,12.0,0.,12.0
1979-07-29 00:54:40.650 ,7,0,0.,12.0,0.,12.0,0.,12.0,0.,12.0
1979-07-29 00:54:52.650 ,7,0,0.,12.0,0.,12.0,0.,12.0,0.,12.0
1979-07-29 00:55:04.650 ,7,0,0.,12.0,0.,12.0,0.,12.0,0.,12.0
1979-07-29 00:55:16.650 ,6,0,0.,12.0,0.,12.0,0.,12.0,0.,12.0
1979-07-29 00:55:28.650 ,6,0,0.,12.0,0.,12.0,0.,12.0,0.,12.0
1979-07-29 00:55:40.650 ,6,0,0.,12.0,0.,12.0,0.,12.0,0.,12.0
1979-07-29 00:55:52.650 ,6,0,0.,12.0,0.,12.0,0.,12.0,0.,12.0
1979-07-29 00:56:04.650 ,5,0,0.,12.0,0.,12.0,0.,12.0,0.,12.0
1979-07-29 00:56:16.650 ,5,0,0.,12.0,0.,12.0,0.,12.0,0.,12.0
1979-07-29 00:56:28.650 ,5,0,0.,12.0,0.,12.0,0.,12.0,0.,12.0
1979-07-29 00:56:40.650 ,5,0,0.,12.0,0.,12.0,0.,12.0,0.,12.0
1979-07-29 00:56:52.650 ,4,0,0.,12.0,0.,12.0,0.,12.0,0.,12.0
1979-07-29 00:57:04.650 ,4,0,0.,12.0,0.,12.0,0.,12.0,0.,12.0
1979-07-29 00:57:16.650 ,4,0,0.,12.0,0.,12.0,0.,12.0,0.,12.0
1979-07-29 00:57:28.650 ,4,0,0.,12.0,0.,12.0,0.,12.0,0.,12.0
1979-07-29 00:57:40.650 ,3,0,0.,12.0,0.,12.0,0.,12.0,0.,12.0
1979-07-29 00:57:52.650 ,3,0,0.,12.0,0.,12.0,0.,12.0,0.,12.0
1979-07-29 00:58:04.650 ,3,0,0.,12.0,0.,12.0,0.,12.0,0.,12.0
1979-07-29 00:58:16.650 ,3,0,0.,12.0,0.,12.0,0.,12.0,0.,12.0
1979-07-29 00:58:28.650 ,2,0,0.,12.0,0.,12.0,0.,12.0,0.,12.0
1979-07-29 00:58:40.650 ,2,0,0.,12.0,0.,12.0,0.,12.0,0.,12.0
1979-07-29 00:58:52.650 ,2,0,0.,12.0,0.,12.0,0.,12.0,0.,12.0
1979-07-29 00:59:04.650 ,2,0,0.,12.0,0.,12.0,0.,12.0,0.,12.0
1979-07-29 00:59:16.650 ,1,0,0.,12.0,0.,12.0,0.,12.0,0.,12.0
1979-07-29 00:59:28.650 ,1,0,0.,12.0,0.,12.0,0.,12.0,0.,12.0
1979-07-29 00:59:40.650 ,1,0,0.,12.0,0.,12.0,0.,12.0,0.,12.0
1979-07-29 00:59:52.650 ,1,0,0.,12.0,0.,12.0,0.,12.0,0.,12.0
1979-07-29 01:00:04.650 ,0,0,0.,12.0,0.,12.0,0.,12.0,0.,12.0
1979-07-29 01:00:16.650 ,0,0,0.,12.0,0.,12.0,0.,12.0,0.,12.0
1979-07-29 01:00:28.650 ,0,0,0.,12.0,0.,12.0,0.,12.0,0.,12.0
1979-07-29 01:00:40.650 ,0,0,0.,12.0,0.,12.0,0.,12.0,0.,12.0
1979-07-29 01:00:52.650 ,0,0,0.,12.0,0.,12.0,0.,12.0,0.,12.0
1979-07-29 01:01:04.650 ,0,0,0.,12.0,0.,12.0,0.,12.0,0.,12.0
1979-07-29 01:01:16.650 ,0,0,0.,12.0,0.,12.0,0.,12.0,0.,12.0
1979-07-29 01:01:28.650 ,0,0,0.,12.0,0.,12.0,0.,12.0,0.,12.0
1979-07-29 01:01:40.640 ,1,0,0.,12.0,0.,12.0,0.,12.0,0.,12.0
1979-07-29 01:01:52.650 ,1,0,0.,12.0,0.,12.0,0.,12.0,0.,12.0
1979-07-29 01:02:04.640 ,1,0,0.,12.0,0.,12.0,0.,12.0,0.,12.0
1979-07-29 01:02:16.650 ,1,0,0.,12.0,0.,12.0,0.,12.0,0.,12.0
1979-07-29 01:02:28.650 ,2,0,0.,12.0,0.,12.0,0.,12.0,0.,12.0
1979-07-29 01:02:40.650 ,2,0,0.,12.0,0.,12.0,0.,12.0,0.,12.0
1979-07-29 01:02:52.650 ,2,0,0.,12.0,0.,12.0,0.,12.0,0.,12.0
1979-07-29 01:03:04.650 ,2,0,0.,12.0,0.,12.0,0.,12.0,0.,12.0
1979-07-29 01:03:16.650 ,3,0,0.,12.0,0.,12.0,0.,12.0,0.,12.0
1979-07-29 01:03:28.650 ,3,0,0.,12.0,0.,12.0,0.,12.0,0.,12.0
1979-07-29 01:03:40.650 ,3,0,0.,12.0,0.,12.0,0.,12.0,0.,12.0
1979-07-29 01:03:52.650 ,3,0,0.,12.0,0.,12.0,0.,12.0,0.,12.0
1979-07-29 01:04:04.650 ,4,0,0.,12.0,0.,12.0,0.,12.0,0.,12.0
1979-07-29 01:04:16.650 ,4,0,0.,12.0,0.,12.0,0.,12.0,0.,12.0
1979-07-29 01:04:28.640 ,4,0,0.,12.0,0.,12.0,0.,12.0,0.,12.0
1979-07-29 01:04:40.640 ,4,0,0.,12.0,0.,12.0,0.,12.0,0.,12.0
1979-07-29 01:04:52.640 ,5,0,0.,12.0,0.,12.0,0.,12.0,0.,12.0
1979-07-29 01:05:04.640 ,5,0,0.,12.0,0.,12.0,0.,12.0,0.,12.0
1979-07-29 01:05:16.640 ,5,0,0.,12.0,0.,12.0,0.,12.0,0.,12.0
1979-07-29 01:05:28.640 ,5,0,0.,12.0,0.,12.0,0.,12.0,0.,12.0
1979-07-29 01:05:40.640 ,6,0,0.,12.0,0.,12.0,0.,12.0,0.,12.0
1979-07-29 01:05:52.640 ,6,0,0.,12.0,0.,12.0,0.,12.0,0.,12.0
1979-07-29 01:06:04.640 ,6,0,0.,12.0,0.,12.0,0.,12.0,0.,12.0
1979-07-29 01:06:16.640 ,6,0,0.,12.0,0.,12.0,0.,12.0,0.,12.0
1979-07-29 01:06:28.640 ,7,0,0.,12.0,0.,12.0,0.,12.0,0.,12.0
1979-07-29 01:06:40.640 ,7,0,0.,12.0,0.,12.0,0.,12.0,0.,12.0
1979-07-29 01:06:52.640 ,7,0,0.,12.0,0.,12.0,0.,12.0,0.,12.0
1979-07-29 01:07:04.640 ,7,0,0.,12.0,0.,12.0,0.,12.0,0.,12.0
1979-07-29 01:07:16.640 ,3,1,0.,12.0,0.,12.0,0.,12.0,0.,12.0
1979-07-29 01:07:28.640 ,3,1,0.,12.0,0.,12.0,0.,12.0,0.,12.0
1979-07-29 01:07:40.640 ,0,1,0.,12.0,0.,12.0,0.,12.0,0.,12.0
1979-07-29 01:07:52.640 ,0,1,0.,12.0,0.,12.0,0.,12.0,0.,12.0
1979-07-29 01:08:04.640 ,4,1,0.,12.0,0.,12.0,0.,12.0,0.,12.0
1979-07-29 01:08:16.640 ,4,1,0.,12.0,0.,12.0,0.,12.0,0.,12.0
1979-07-29 01:08:28.640 ,7,1,0.,12.0,0.,12.0,0.,12.0,0.,12.0
1979-07-29 01:08:40.650 ,7,1,0.,12.0,0.,12.0,0.,12.0,0.,12.0
1979-07-29 01:08:52.650 ,3,1,0.,12.0,0.,12.0,0.,12.0,0.,12.0
1979-07-29 01:09:04.650 ,3,1,0.,12.0,0.,12.0,0.,12.0,0.,12.0
1979-07-29 01:09:16.650 ,0,1,0.,12.0,0.,12.0,0.,12.0,0.,12.0
1979-07-29 01:09:28.650 ,0,1,0.,12.0,0.,12.0,0.,12.0,0.,12.0
1979-07-29 01:09:40.650 ,4,1,0.,12.0,0.,12.0,0.,12.0,0.,12.0
1979-07-29 01:09:52.650 ,4,1,0.,12.0,0.,12.0,0.,12.0,0.,12.0
1979-07-29 01:10:04.650 ,7,1,0.,12.0,0.,12.0,0.,12.0,0.,12.0
1979-07-29 01:10:16.650 ,7,1,0.,12.0,0.,12.0,0.,12.0,0.,12.0
1979-07-29 01:10:28.650 ,3,1,0.,12.0,0.,12.0,0.,12.0,0.,12.0
1979-07-29 01:10:40.650 ,3,1,0.,12.0,0.,12.0,0.,12.0,0.,12.0
1979-07-29 01:10:52.650 ,0,1,0.,12.0,0.,12.0,0.,12.0,0.,12.0
1979-07-29 01:11:04.650 ,0,1,0.,12.0,0.,12.0,0.,12.0,0.,12.0
1979-07-29 01:11:16.650 ,4,1,0.,12.0,0.,12.0,0.,12.0,0.,12.0
1979-07-29 01:11:28.650 ,4,1,0.,12.0,0.,12.0,0.,12.0,0.,12.0
1979-07-29 01:11:40.650 ,7,1,0.,12.0,0.,12.0,0.,12.0,0.,12.0
1979-07-29 01:11:52.650 ,7,1,0.,12.0,0.,12.0,0.,12.0,0.,12.0
1979-07-29 01:12:04.650 ,3,1,0.,12.0,0.,12.0,0.,12.0,0.,12.0
1979-07-29 01:12:16.650 ,3,1,0.,12.0,0.,12.0,0.,12.0,0.,12.0
1979-07-29 01:12:28.650 ,0,1,0.,12.0,0.,12.0,0.,12.0,0.,12.0
1979-07-29 01:12:40.650 ,0,1,0.,12.0,0.,12.0,0.,12.0,0.,12.0
1979-07-29 01:12:52.650 ,4,1,0.,12.0,0.,12.0,0.,12.0,0.,12.0
1979-07-29 01:13:04.650 ,4,1,0.,12.0,0.,12.0,0.,12.0,0.,12.0
1979-07-29 01:13:16.650 ,7,1,0.,12.0,0.,12.0,0.,12.0,0.,12.0
1979-07-29 01:13:28.650 ,7,1,0.,12.0,0.,12.0,0.,12.0,0.,12.0
1979-07-29 01:13:40.640 ,3,1,0.,12.0,0.,12.0,0.,12.0,0.,12.0
1979-07-29 01:13:52.640 ,3,1,0.,12.0,0.,12.0,0.,12.0,0.,12.0
1979-07-29 01:14:04.640 ,0,1,0.,12.0,0.,12.0,0.,12.0,0.,12.0
1979-07-29 01:14:16.640 ,0,1,0.,12.0,0.,12.0,0.,12.0,0.,12.0
1979-07-29 01:14:28.640 ,4,1,0.,12.0,0.,12.0,0.,12.0,0.,12.0
1979-07-29 01:14:40.640 ,4,1,0.,12.0,0.,12.0,0.,12.0,0.,12.0
1979-07-29 01:14:52.640 ,7,1,0.,12.0,0.,12.0,0.,12.0,0.,12.0
1979-07-29 01:15:04.640 ,7,1,0.,12.0,0.,12.0,0.,12.0,0.,12.0
1979-07-29 01:15:16.640 ,3,1,0.,12.0,0.,12.0,0.,12.0,0.,12.0
1979-07-29 01:15:28.640 ,3,1,0.,12.0,0.,12.0,0.,12.0,0.,12.0
1979-07-29 01:15:40.640 ,0,1,0.,12.0,0.,12.0,0.,12.0,0.,12.0
1979-07-29 01:15:52.640 ,0,1,0.,12.0,0.,12.0,0.,12.0,0.,12.0
1979-07-29 01:16:04.640 ,4,1,0.,12.0,0.,12.0,0.,12.0,0.,12.0
1979-07-29 01:16:16.640 ,4,1,0.,12.0,0.,12.0,0.,12.0,0.,12.0
1979-07-29 01:16:28.640 ,7,1,0.,12.0,0.,12.0,0.,12.0,0.,12.0
1979-07-29 01:16:40.640 ,7,1,0.,12.0,0.,12.0,0.,12.0,0.,12.0
1979-07-29 01:16:52.640 ,3,1,0.,12.0,0.,12.0,0.,12.0,0.,12.0
1979-07-29 01:17:04.640 ,3,1,0.,12.0,0.,12.0,0.,12.0,0.,12.0
1979-07-29 01:17:16.640 ,0,1,0.,12.0,0.,12.0,0.,12.0,0.,12.0
1979-07-29 01:17:28.640 ,0,1,0.,12.0,0.,12.0,0.,12.0,0.,12.0
1979-07-29 01:17:40.640 ,0,0,0.,12.0,0.,12.0,0.,12.0,0.,12.0
1979-07-29 01:17:52.640 ,0,0,0.,12.0,0.,12.0,0.,12.0,0.,12.0
1979-07-29 01:18:04.640 ,0,0,0.,12.0,0.,12.0,0.,12.0,0.,12.0
1979-07-29 01:18:16.640 ,0,0,0.,12.0,0.,12.0,0.,12.0,0.,12.0
1979-07-29 01:18:28.640 ,5,0,0.,12.0,0.,12.0,0.,12.0,0.,12.0
1979-07-29 01:18:40.640 ,5,0,0.,12.0,0.,12.0,0.,12.0,0.,12.0
1979-07-29 01:18:52.640 ,5,0,0.,12.0,0.,12.0,0.,12.0,0.,12.0
1979-07-29 01:19:04.640 ,5,0,0.,12.0,0.,12.0,0.,12.0,0.,12.0
1979-07-29 01:19:16.640 ,4,0,0.,12.0,0.,12.0,0.,12.0,0.,12.0
1979-07-29 01:19:28.640 ,4,0,0.,12.0,0.,12.0,0.,12.0,0.,12.0
1979-07-29 01:19:40.640 ,4,0,0.,12.0,0.,12.0,0.,12.0,0.,12.0
1979-07-29 01:19:52.640 ,4,0,0.,12.0,0.,12.0,0.,12.0,0.,12.0
1979-07-29 01:20:04.640 ,3,0,0.,12.0,0.,12.0,0.,12.0,0.,12.0
1979-07-29 01:20:16.640 ,3,0,0.,12.0,0.,12.0,0.,12.0,0.,12.0
1979-07-29 01:20:28.640 ,3,0,0.,12.0,0.,12.0,0.,12.0,0.,12.0
1979-07-29 01:20:40.640 ,3,0,0.,12.0,0.,12.0,0.,12.0,0.,12.0
1979-07-29 01:20:52.640 ,2,0,0.,12.0,0.,12.0,0.,12.0,0.,12.0
1979-07-29 01:21:04.640 ,2,0,0.,12.0,0.,12.0,0.,12.0,0.,12.0
1979-07-29 01:21:16.640 ,2,0,0.,12.0,0.,12.0,0.,12.0,0.,12.0
1979-07-29 01:21:28.640 ,2,0,0.,12.0,0.,12.0,0.,12.0,0.,12.0
1979-07-29 01:21:40.640 ,1,0,0.,12.0,0.,12.0,0.,12.0,0.,12.0
1979-07-29 01:21:52.640 ,1,0,0.,12.0,0.,12.0,0.,12.0,0.,12.0
1979-07-29 01:22:04.640 ,1,0,0.,12.0,0.,12.0,0.,12.0,0.,12.0
1979-07-29 01:22:16.640 ,1,0,0.,12.0,0.,12.0,0.,12.0,0.,12.0
1979-07-29 01:22:28.640 ,0,0,0.,12.0,0.,12.0,0.,12.0,0.,12.0
1979-07-29 01:22:40.640 ,0,0,0.,12.0,0.,12.0,0.,12.0,0.,12.0
1979-07-29 01:22:52.640 ,0,0,0.,12.0,0.,12.0,0.,12.0,0.,12.0
1979-07-29 01:23:04.640 ,0,0,0.,12.0,0.,12.0,0.,12.0,0.,12.0
1979-07-29 01:23:16.640 ,0,0,0.,12.0,0.,12.0,0.,12.0,0.,12.0
1979-07-29 01:23:28.640 ,0,0,0.,12.0,0.,12.0,0.,12.0,0.,12.0
1979-07-29 01:23:40.640 ,0,0,0.,12.0,0.,12.0,0.,12.0,0.,12.0
1979-07-29 01:23:52.640 ,0,0,0.,12.0,0.,12.0,0.,12.0,0.,12.0
1979-07-29 01:24:04.640 ,1,0,0.,12.0,0.,12.0,0.,12.0,0.,12.0
1979-07-29 01:24:16.640 ,1,0,0.,12.0,0.,12.0,0.,12.0,0.,12.0
1979-07-29 01:24:28.640 ,1,0,0.,12.0,0.,12.0,0.,12.0,0.,12.0
1979-07-29 01:24:40.640 ,1,0,0.,12.0,0.,12.0,0.,12.0,0.,12.0
1979-07-29 01:24:52.640 ,2,0,0.,12.0,0.,12.0,0.,12.0,0.,12.0
1979-07-29 01:25:04.640 ,2,0,0.,12.0,0.,12.0,0.,12.0,0.,12.0
1979-07-29 01:25:16.640 ,2,0,0.,12.0,0.,12.0,0.,12.0,0.,12.0
1979-07-29 01:25:28.640 ,2,0,0.,12.0,0.,12.0,0.,12.0,0.,12.0
1979-07-29 01:25:40.640 ,3,0,0.,12.0,0.,12.0,0.,12.0,0.,12.0
1979-07-29 01:25:52.640 ,3,0,0.,12.0,0.,12.0,0.,12.0,0.,12.0
1979-07-29 01:26:04.640 ,3,0,0.,12.0,0.,12.0,0.,12.0,0.,12.0
1979-07-29 01:26:16.640 ,3,0,0.,12.0,0.,12.0,0.,12.0,0.,12.0
1979-07-29 01:26:28.640 ,4,0,0.,12.0,0.,12.0,0.,12.0,0.,12.0
1979-07-29 01:26:40.640 ,4,0,0.,12.0,0.,12.0,0.,12.0,0.,12.0
1979-07-29 01:26:52.640 ,4,0,0.,12.0,0.,12.0,0.,12.0,0.,12.0
1979-07-29 01:27:04.640 ,4,0,0.,12.0,0.,12.0,0.,12.0,0.,12.0
1979-07-29 01:27:16.640 ,5,0,0.,12.0,0.,12.0,0.,12.0,0.,12.0
1979-07-29 01:27:28.640 ,5,0,0.,12.0,0.,12.0,0.,12.0,0.,12.0
1979-07-29 01:27:40.640 ,5,0,0.,12.0,0.,12.0,0.,12.0,0.,12.0
1979-07-29 01:27:52.640 ,5,0,0.,12.0,0.,12.0,0.,12.0,0.,12.0
1979-07-29 01:28:04.640 ,6,0,0.,12.0,0.,12.0,0.,12.0,0.,12.0
1979-07-29 01:28:16.640 ,6,0,0.,12.0,0.,12.0,0.,12.0,0.,12.0
1979-07-29 01:28:28.640 ,6,0,0.,12.0,0.,12.0,0.,12.0,0.,12.0
1979-07-29 01:28:40.640 ,6,0,0.,12.0,0.,12.0,0.,12.0,0.,12.0